Temperature
17 17 18 18 18 18 18 17 17 17 17 17 16 17 17 17 17 17 17 17 17 17 17 17 17 17 17 17 17 17 17 17 17 17 17 17 17 17 17 17 17 18 18
17 17 17 18 18 18 17 17 17 17 17 17 17 17 17 17 17 17 17 17 17 17 17 17 17 17 17 17 17 17 17 17 17 17 17 17 17 17 17 17 17 17 17
17 17 17 17 17 17 17 17 17 17 17 17 17 17 17 17 17 17 17 17 16 16 16 16 16 16 16 16 16 16 16 16 16 16 16 16 16 17 17 17 17 17 17
17 17 17 17 17 17 17 17 17 17 17 17 17 17 16 16 16 16 16 16 16 16 16 16 16 16 16 16 16 16 16 16 16 16 16 16 16 16 16 16 17 17 17
18 18 18 18 17 17 17 17 17 17 17 17 17 16 16 16 16 16 16 16 16 16 16 16 16 16 17 16 16 16 16 16 16 16 16 16 16 16 16 16 16 16 17
18 18 18 18 17 17 17 17 17 17 17 17 16 16 16 16 16 16 16 16 16 16 16 16 17 17 17 16 16 16 16 16 16 16 16 16 16 16 16 16 16 16 16
18 18 18 18 17 17 17 17 17 17 17 17 16 16 16 16 16 16 16 16 16 16 16 16 16 16 16 16 16 16 16 16 16 16 16 16 16 16 16 16 16 16 16
18 18 18 18 17 17 17 17 17 17 17 16 16 16 15 15 15 15 15 16 16 16 16 16 16 16 16 16 16 16 16 16 16 16 16 16 16 16 16 16 16 16 16
18 18 18 17 17 17 17 17 17 17 17 16 16 16 16 16 15 15 15 15 15 16 16 16 16 16 16 16 16 16 16 16 16 16 16 16 16 16 16 16 16 16 16
17 17 17 17 17 17 17 17 17 17 17 16 16 16 16 16 16 15 15 15 15 15 15 15 15 16 16 16 16 16 16 16 16 16 16 16 16 16 16 16 16 16 16
17 17 17 17 17 17 17 17 17 17 16 16 16 16 16 16 16 16 16 16 15 15 15 15 15 15 16 15 15 16 16 16 16 16 16 16 16 16 15 15 15 15 15
17 17 17 17 17 16 16 16 16 16 16 16 16 16 16 16 16 16 16 16 16 16 15 15 15 15 16 15 15 15 16 16 16 16 16 16 16 16 15 15 15 15 15
17 17 17 16 16 16 16 16 16 16 16 16 16 16 16 16 16 16 16 16 16 16 16 15 15 15 16 16 15 15 16 16 15 15 15 15 15 15 15 15 15 15 15
17 16 16 16 16 16 16 15 15 15 15 15 15 15 16 16 16 16 16 15 16 16 16 16 16 16 16 16 16 15 16 15 15 15 15 15 15 15 15 15 15 15 15
16 16 16 16 16 15 15 15 15 15 15 15 15 15 15 15 15 15 15 15 15 16 16 16 16 16 16 16 16 15 15 15 15 15 15 15 14 14 14 14 14 14 14
16 16 16 16 15 15 15 15 15 15 15 15 15 15 15 15 15 15 15 15 15 15 16 16 16 16 16 16 15 15 15 15 15 15 15 14 14 14 14 14 14 14 14
16 16 16 16 15 15 15 15 15 15 14 14 14 15 15 15 14 14 14 14 14 15 15 16 16 16 16 16 15 15 15 15 15 15 15 14 14 14 14 14 14 14 14
16 16 16 16 15 15 15 15 14 14 14 14 14 14 14 14 14 14 14 14 14 14 15 15 15 15 15 15 15 15 15 15 15 15 14 14 14 14 14 14 14 14 14
16 16 16 16 15 15 15 15 14 14 14 14 14 14 14 14 14 14 14 13 14 14 14 14 15 15 15 15 15 14 14 14 14 14 14 14 14 14 14 14 14 14 14
16 16 16 15 15 15 15 15 15 14 14 14 14 13 13 13 13 13 13 13 13 13 13 14 14 14 15 15 15 14 14 14 14 14 14 14 14 14 14 14 14 14 14
16 16 15 15 15 15 15 15 15 14 14 14 14 13 13 13 13 13 13 13 13 13 13 13 13 14 14 14 14 14 14 14 14 14 14 14 14 14 14 14 14 14 14
16 16 15 15 15 15 15 15 15 14 14 14 14 14 13 13 13 13 13 13 12 12 13 13 13 13 13 14 14 14 14 13 14 14 14 14 14 14 14 14 14 14 14
16 16 15 15 15 15 15 15 15 15 14 14 14 14 14 14 13 13 13 13 13 13 13 13 13 13 13 13 14 14 14 14 14 14 14 14 14 14 14 14 14 13 13
15 15 15 15 15 15 15 15 14 14 14 14 14 14 14 14 14 14 13 13 13 13 13 13 13 13 13 13 13 14 14 13 13 13 13 13 13 14 14 14 14 13 13
14 14 15 15 15 15 15 14 14 14 14 14 14 14 14 14 14 14 14 14 13 13 13 13 13 13 13 13 13 13 13 13 13 14 13 13 13 13 13 14 14 13 13
13 13 14 14 14 14 14 14 14 14 14 14 14 14 14 14 14 14 14 14 14 14 13 13 13 13 13 13 13 13 13 13 13 13 14 13 13 13 13 14 14 14 14
Wind_Speed
6 4 4 6 7 6 4 3 2 2 4 6 8 8 7 7 8 8 8 8 7 7 8 9 9 8 7 7 6 6 6 7 8 8 8 7 6 4 3 2 2 3 3
7 6 5 4 6 7 6 3 3 4 5 6 6 7 7 8 8 9 10 10 9 9 9 9 9 9 8 7 6 6 5 5 6 7 7 6 6 4 3 2 1 2 3
12 8 7 6 6 9 6 4 4 5 6 6 7 6 5 6 7 8 10 11 11 11 10 10 10 9 8 7 6 6 5 5 5 5 6 5 5 4 4 3 1 1 2
16 10 8 7 9 8 5 5 5 5 5 6 5 5 4 4 5 6 8 9 9 10 11 11 10 9 8 7 6 6 5 5 5 4 4 4 4 4 4 3 2 0 2
14 10 8 7 9 5 5 7 5 5 5 5 5 5 5 5 5 5 4 6 8 9 9 9 9 9 8 7 6 6 5 5 5 4 3 2 2 3 4 4 2 1 2
9 8 6 8 7 6 6 6 6 5 5 5 5 4 3 4 4 5 5 5 6 8 8 8 8 8 8 8 7 6 6 6 5 5 3 2 1 2 3 4 4 3 2
7 5 6 7 7 7 8 8 5 6 4 3 4 3 3 3 3 4 4 4 4 7 7 7 6 7 7 8 8 8 6 6 6 6 5 3 1 1 2 3 4 4 3
7 6 7 7 7 7 8 8 6 5 3 3 4 4 2 2 2 1 3 5 5 5 6 7 7 6 6 7 8 8 9 7 7 7 6 5 3 1 1 2 3 3 3
7 6 7 7 7 7 8 8 8 8 5 3 3 4 4 4 2 2 2 3 5 4 4 7 9 8 7 6 6 7 7 7 6 6 6 6 5 3 1 1 2 2 3
6 7 7 7 7 6 7 8 8 6 8 5 3 2 3 4 4 2 2 2 4 5 5 4 8 11 10 8 7 6 5 5 4 4 4 5 5 5 4 2 0 1 2
5 6 7 7 7 7 8 7 7 7 6 6 5 3 2 2 2 3 3 3 2 3 4 5 6 10 12 11 9 7 6 4 4 4 4 4 5 5 5 4 3 1 0
4 6 6 7 7 6 7 8 8 8 7 7 6 5 5 4 3 3 3 3 4 4 4 4 5 8 12 13 11 10 8 6 4 3 4 4 5 5 5 5 4 3 2
3 4 5 6 6 6 7 7 7 8 8 8 8 6 6 5 4 4 3 3 3 3 3 4 5 9 12 14 13 13 10 8 6 4 3 3 4 5 5 5 5 5 5
3 3 4 5 6 6 7 7 7 8 7 8 9 8 6 6 5 5 4 4 3 3 3 5 4 6 11 14 15 16 12 11 9 6 4 2 2 3 4 5 5 6 6
2 3 4 3 4 4 6 7 6 8 7 8 8 9 7 6 6 6 4 4 5 5 7 6 5 6 10 13 16 15 14 13 11 9 6 4 2 1 2 3 4 4 5
3 4 4 3 3 2 3 4 4 6 7 8 7 9 9 7 7 6 5 4 4 5 6 6 6 5 7 10 15 15 15 14 13 11 9 7 4 2 1 1 2 3 3
4 4 4 3 3 2 2 2 2 3 5 6 6 8 9 8 7 7 6 5 3 3 4 3 3 3 7 7 8 12 14 13 13 13 12 10 8 5 3 2 2 2 2
4 4 4 4 3 3 2 2 2 3 4 4 5 6 6 6 8 7 7 6 4 3 3 3 3 3 5 7 7 7 8 11 13 14 14 13 10 8 6 4 3 2 2
5 5 5 5 5 4 4 3 3 3 3 3 3 4 5 6 7 6 7 7 5 4 3 2 2 2 2 3 4 4 5 5 9 12 15 14 13 10 8 6 5 4 3
6 6 6 6 6 5 5 4 4 3 2 2 2 3 4 5 6 7 6 7 6 6 4 3 2 2 2 2 4 4 4 5 6 7 11 13 13 12 11 9 8 6 6
7 6 6 6 5 5 6 6 5 5 4 3 2 2 3 5 7 7 6 7 6 5 4 4 3 2 2 3 4 5 6 4 5 5 5 6 8 8 11 12 11 10 9
5 5 6 6 7 6 9 11 8 6 5 5 5 4 5 6 8 10 10 11 10 7 6 4 4 4 5 5 4 5 5 4 5 5 6 5 5 7 8 12 14 13 12
4 5 6 7 7 8 11 12 13 7 6 6 6 5 6 7 9 7 10 12 12 13 11 7 6 7 6 6 6 6 7 7 7 5 6 5 5 7 8 13 16 17 16
3 4 5 6 7 9 12 13 13 8 6 5 6 7 7 7 7 9 8 8 8 9 11 9 8 8 8 7 7 8 8 7 3 3 6 6 5 6 5 11 17 20 20
2 2 3 5 6 8 10 12 10 5 4 4 4 5 7 7 10 12 9 8 8 8 10 13 13 11 12 12 9 5 5 5 5 5 6 6 5 4 3 4 13 20 23
2 2 2 2 4 5 7 9 9 4 4 2 2 2 5 6 7 8 9 8 8 7 5 4 6 7 6 6 8 8 7 6 4 4 6 6 5 4 3 3 3 9 15
Wind_Direction
176 183 192 200 212 217 215 218 216 179 151 139 126 121 112 106 100 91 89 94 101 112 113 109 105 105 110 116 127 137 151 157 158 157 155 153 152 151 144 120 89 71 57
182 185 194 203 218 219 214 197 177 138 124 123 125 125 122 117 106 98 92 89 92 100 107 106 103 101 101 104 109 121 136 149 162 165 165 167 168 171 173 160 105 64 48
190 189 194 201 217 222 202 164 149 124 117 122 127 133 130 124 115 108 102 94 90 91 98 99 95 93 93 96 99 102 113 119 135 155 165 173 179 185 192 191 159 50 28
192 191 194 199 207 208 177 157 148 128 124 129 133 140 137 133 130 128 116 108 100 94 91 92 89 85 82 87 94 98 102 105 108 122 142 166 187 196 203 202 200 326 0
193 190 195 196 192 184 178 167 154 142 139 140 139 131 132 146 158 154 142 132 125 117 104 95 86 79 76 79 84 92 103 105 103 104 115 142 180 199 203 206 217 256 316
196 194 200 195 180 176 178 166 154 147 148 152 136 110 110 140 158 163 169 163 155 146 133 117 100 85 79 73 69 81 91 99 99 95 98 103 158 202 207 215 226 245 273
197 188 203 197 185 183 180 161 147 142 137 128 101 73 28 53 120 157 163 163 177 174 158 148 131 113 93 76 65 68 80 85 88 84 81 82 84 194 218 227 234 241 253
193 189 192 200 192 183 174 164 150 138 144 143 134 116 71 0 352 120 171 175 183 180 180 179 160 141 123 102 81 69 62 69 76 73 64 62 67 79 225 237 235 233 243
193 184 182 193 196 183 183 177 163 150 158 169 150 146 154 197 240 298 224 196 182 182 191 182 181 174 154 134 110 86 70 61 71 68 59 53 55 56 51 249 227 227 238
191 186 184 186 188 188 189 191 175 160 154 166 172 168 157 153 151 197 287 260 214 195 192 180 178 180 174 161 144 125 99 74 72 70 60 52 51 53 52 45 12 235 243
194 188 187 186 185 187 191 191 180 170 167 169 171 166 159 145 128 143 206 247 256 233 205 182 170 173 177 174 163 154 137 110 88 75 61 54 49 48 47 46 44 38 342
194 189 188 192 190 187 189 191 188 183 189 182 178 171 166 163 166 153 176 205 219 237 215 193 178 176 180 182 178 169 160 150 131 104 75 58 48 41 34 33 30 25 18
195 195 187 193 195 195 193 187 190 197 196 191 189 191 186 179 152 155 165 188 208 235 208 208 198 183 184 186 185 177 173 170 164 154 124 82 57 44 34 27 23 23 26
199 184 179 190 196 195 195 192 198 204 202 203 202 195 190 188 169 165 167 165 178 217 222 222 196 194 188 187 188 182 180 181 180 178 170 144 87 53 40 31 22 18 20
167 148 152 165 184 192 195 194 207 212 207 208 209 203 200 193 179 173 170 177 172 190 219 220 201 197 191 189 189 186 187 189 189 190 190 184 165 83 37 27 21 13 15
140 135 133 136 141 157 175 189 207 214 213 217 215 210 207 196 184 172 170 175 186 186 210 217 208 191 184 195 195 192 194 196 197 198 200 202 202 206 252 354 4 4 10
159 159 158 153 148 145 143 157 191 196 207 215 216 212 213 196 185 179 173 165 175 176 204 228 211 190 177 182 180 192 198 200 203 204 206 209 211 214 225 255 313 339 347
180 179 172 167 168 170 166 166 189 195 200 208 210 205 207 199 190 181 176 174 175 177 184 204 205 179 184 187 177 183 195 205 206 210 210 212 214 217 222 234 256 284 297
196 190 182 186 187 183 179 179 180 186 196 198 197 197 194 184 187 182 178 177 175 179 164 180 203 198 174 155 154 190 196 199 206 214 214 216 217 219 222 229 237 245 244
201 201 199 199 195 189 187 181 172 166 166 172 183 187 185 185 184 177 176 172 169 172 164 164 191 208 199 159 152 175 196 208 211 206 209 211 216 221 224 226 229 231 227
213 205 202 209 205 196 199 189 182 179 177 183 196 203 204 200 192 182 178 173 171 174 171 171 186 189 194 169 194 192 204 199 215 199 192 205 207 218 224 226 226 226 221
222 206 207 207 211 218 212 199 189 187 190 197 212 223 228 225 217 211 206 192 184 183 185 185 193 203 215 212 199 193 190 182 229 206 185 218 190 218 221 222 224 222 220
227 217 214 204 212 225 220 207 200 190 198 208 215 221 233 231 224 220 222 217 212 212 202 192 203 213 217 215 200 205 202 204 217 185 174 217 199 225 222 223 222 220 219
247 234 226 215 215 226 222 214 204 195 201 213 222 224 228 240 224 214 215 221 226 226 222 217 219 225 227 222 212 215 215 220 223 184 171 204 202 218 220 216 222 217 216
302 258 243 220 218 232 227 216 196 181 199 220 237 235 225 231 238 217 201 214 230 240 238 229 229 233 237 236 221 204 195 193 226 222 189 199 202 201 214 223 223 219 213
309 299 286 238 221 232 233 215 182 164 184 210 254 275 238 221 227 206 195 202 219 233 220 218 227 237 239 244 227 208 199 200 211 230 197 189 182 160 233 248 215 212 209
Height
1531 1533 1534 1536 1537 1538 1538 1539 1539 1539 1540 1541 1541 1542 1542 1541 1541 1541 1542 1542 1543 1543 1544 1544 1545 1545 1545 1546 1547 1547 1548 1548 1549 1549 1550 1551 1551 1551 1552 1552 1551 1551 1550
1531 1533 1534 1536 1537 1538 1539 1539 1539 1540 1540 1541 1542 1542 1542 1542 1542 1542 1542 1543 1543 1544 1544 1545 1545 1546 1546 1546 1547 1547 1547 1548 1548 1549 1549 1550 1550 1551 1551 1551 1551 1550 1550
1530 1532 1534 1535 1536 1538 1538 1539 1540 1540 1541 1541 1542 1542 1543 1543 1543 1543 1543 1544 1544 1545 1545 1546 1546 1546 1546 1546 1547 1547 1547 1548 1548 1548 1549 1549 1549 1550 1550 1550 1550 1550 1550
1528 1530 1532 1533 1535 1536 1538 1539 1540 1540 1541 1541 1542 1542 1543 1543 1544 1544 1545 1545 1545 1546 1546 1546 1547 1547 1547 1547 1547 1547 1547 1547 1547 1548 1548 1548 1548 1549 1549 1549 1549 1549 1549
1526 1528 1529 1531 1533 1535 1536 1537 1539 1540 1541 1541 1542 1542 1543 1543 1544 1544 1545 1545 1546 1546 1547 1547 1547 1547 1547 1547 1547 1547 1547 1547 1547 1547 1547 1547 1547 1547 1548 1548 1548 1548 1548
1523 1525 1527 1529 1530 1532 1534 1535 1537 1538 1540 1541 1542 1543 1543 1543 1543 1544 1545 1545 1546 1546 1547 1547 1547 1548 1548 1548 1548 1548 1547 1547 1547 1546 1546 1546 1546 1546 1546 1547 1547 1547 1547
1520 1522 1524 1526 1527 1529 1531 1533 1535 1536 1538 1540 1541 1542 1543 1543 1543 1544 1544 1545 1546 1546 1547 1547 1548 1548 1548 1548 1548 1548 1548 1548 1547 1547 1546 1546 1546 1546 1545 1546 1546 1546 1546
1517 1519 1521 1522 1523 1525 1527 1529 1531 1533 1535 1537 1538 1540 1541 1543 1543 1543 1544 1545 1545 1546 1547 1547 1547 1548 1549 1549 1549 1549 1549 1548 1548 1547 1547 1546 1546 1545 1545 1545 1545 1545 1545
1514 1516 1517 1518 1520 1522 1523 1525 1527 1529 1532 1534 1536 1538 1539 1539 1541 1542 1543 1544 1545 1545 1546 1546 1547 1548 1548 1549 1549 1549 1549 1549 1548 1548 1547 1546 1546 1545 1545 1544 1544 1544 1544
1511 1512 1513 1515 1516 1518 1519 1521 1523 1525 1528 1530 1532 1534 1537 1537 1538 1539 1541 1542 1543 1544 1545 1545 1546 1547 1548 1548 1548 1549 1548 1548 1548 1547 1547 1546 1546 1545 1544 1544 1544 1543 1543
1507 1509 1510 1511 1512 1513 1515 1517 1519 1521 1524 1526 1528 1530 1533 1534 1535 1536 1538 1539 1541 1542 1543 1544 1544 1545 1546 1547 1548 1548 1548 1548 1547 1547 1547 1546 1545 1544 1544 1543 1543 1543 1542
1504 1505 1506 1507 1508 1509 1511 1513 1514 1516 1519 1522 1524 1526 1528 1530 1531 1533 1535 1536 1538 1540 1541 1542 1543 1544 1545 1546 1546 1546 1547 1547 1547 1546 1546 1545 1544 1544 1543 1543 1542 1542 1541
1501 1502 1502 1503 1504 1505 1507 1508 1510 1512 1514 1516 1519 1521 1524 1526 1528 1530 1533 1534 1535 1537 1538 1540 1541 1542 1543 1544 1545 1545 1545 1545 1545 1545 1545 1544 1544 1543 1542 1541 1541 1541 1540
1499 1499 1500 1500 1500 1501 1502 1504 1505 1507 1509 1511 1514 1516 1518 1521 1524 1526 1529 1531 1533 1534 1535 1536 1538 1539 1541 1542 1543 1543 1544 1544 1544 1544 1544 1543 1542 1541 1540 1540 1540 1539 1539
1497 1497 1497 1497 1498 1498 1498 1499 1500 1502 1503 1505 1508 1510 1512 1515 1518 1521 1524 1527 1530 1530 1531 1533 1534 1536 1538 1540 1541 1542 1542 1542 1542 1542 1542 1542 1541 1540 1539 1538 1538 1538 1538
1496 1496 1496 1495 1495 1495 1495 1496 1496 1497 1498 1499 1502 1504 1506 1509 1512 1515 1518 1521 1524 1527 1527 1529 1531 1533 1535 1537 1538 1540 1540 1541 1541 1541 1540 1540 1539 1538 1537 1537 1536 1536 1536
1495 1495 1495 1494 1493 1493 1493 1493 1493 1493 1494 1495 1496 1498 1500 1503 1506 1509 1512 1515 1519 1521 1523 1526 1528 1530 1532 1533 1535 1537 1538 1538 1539 1539 1539 1538 1537 1537 1536 1535 1535 1534 1534
1494 1494 1494 1493 1493 1492 1492 1491 1491 1491 1491 1492 1492 1493 1495 1498 1500 1503 1506 1509 1512 1515 1519 1521 1524 1526 1528 1530 1532 1533 1535 1536 1536 1536 1536 1536 1536 1535 1534 1534 1533 1533 1532
1494 1494 1493 1493 1493 1492 1492 1491 1490 1490 1490 1490 1490 1491 1492 1494 1496 1498 1500 1503 1506 1510 1513 1517 1520 1522 1524 1526 1527 1529 1531 1532 1533 1533 1534 1534 1533 1533 1532 1532 1531 1530 1530
1493 1493 1492 1492 1492 1492 1491 1491 1490 1490 1490 1490 1490 1490 1491 1492 1493 1494 1496 1498 1502 1504 1508 1512 1515 1518 1520 1522 1523 1524 1526 1527 1529 1530 1530 1531 1531 1530 1530 1529 1529 1528 1528
1491 1491 1491 1491 1491 1491 1491 1491 1490 1490 1490 1490 1490 1490 1491 1491 1492 1493 1494 1496 1498 1500 1503 1506 1510 1513 1515 1517 1519 1520 1521 1523 1524 1525 1526 1527 1527 1527 1527 1527 1526 1525 1525
1489 1489 1489 1489 1489 1489 1489 1490 1490 1490 1490 1490 1491 1491 1491 1491 1492 1493 1494 1495 1497 1499 1500 1503 1505 1508 1510 1513 1515 1516 1517 1517 1518 1520 1521 1522 1523 1523 1524 1524 1523 1523 1522
1486 1486 1486 1486 1486 1487 1487 1488 1488 1489 1489 1490 1490 1491 1491 1491 1492 1493 1493 1495 1496 1497 1499 1501 1502 1503 1506 1508 1510 1511 1511 1511 1512 1515 1516 1516 1517 1518 1520 1520 1520 1520 1519
1481 1482 1482 1482 1483 1483 1484 1485 1486 1486 1487 1488 1489 1490 1490 1491 1491 1492 1492 1493 1494 1495 1496 1498 1499 1500 1502 1503 1504 1506 1506 1507 1507 1508 1509 1510 1511 1513 1515 1515 1516 1516 1516
1476 1477 1477 1478 1479 1480 1481 1482 1483 1484 1485 1486 1487 1488 1488 1489 1490 1490 1491 1491 1492 1493 1494 1494 1496 1497 1498 1499 1499 1500 1500 1501 1501 1502 1503 1504 1505 1507 1509 1510 1511 1512 1512
1472 1472 1473 1474 1475 1476 1477 1479 1480 1481 1482 1484 1485 1486 1486 1487 1487 1488 1488 1488 1489 1490 1491 1491 1492 1493 1494 1494 1495 1495 1496 1496 1496 1497 1498 1499 1499 1502 1503 1504 1506 1507 1508